This demonstration page uses our WeatherBlox Daily Observations layout. Learn more.

Left ArrowRight Arrow

39.29038, -76.61219

Hourly Observations for July 13, 2021

Temp ( °F °C ) Dew Point ( °F °C ) Humidity (%) Winds ( mph kmh ) Pressure ( in mb ) Visibility ( mi km ) Precip ( " mm )
12:54 am 00:54 Partly Cloudy 79 26.1 74 23.3 85 85 S 3 6 30.14 1021 10 16 N/A
1:54 am 01:54 Partly Cloudy 79 26.1 73 22.8 82 82 NW 3 6 30.13 1020 10 16 N/A
2:54 am 02:54 Partly Cloudy 77 25 73 22.8 88 88 N N/A 30.14 1021 10 16 N/A
3:54 am 03:54 Partly Cloudy 76 24.4 73 22.8 91 91 N N/A 30.14 1021 10 16 N/A
4:54 am 04:54 Mostly Clear 78 25.6 73 22.8 85 85 N N/A 30.14 1021 10 16 N/A
5:54 am 05:54 Mostly Sunny 78 25.6 72 22.2 82 82 N N/A 30.15 1021 10 16 N/A
6:54 am 06:54 Mostly Sunny 78 25.6 73 22.8 85 85 N N/A 30.16 1021 10 16 N/A
7:54 am 07:54 Mostly Sunny 81 27.2 73 22.8 77 77 SW 5 7 30.16 1021 10 16 N/A
8:54 am 08:54 Mostly Sunny 84 28.9 74 23.3 72 72 VRB 5 7 30.16 1021 10 16 N/A
9:54 am 09:54 Mostly Sunny 88 31.1 74 23.3 63 63 SSW 5 7 30.17 1022 10 16 N/A
10:54 am 10:54 Mostly Sunny 90 32.2 74 23.3 59 59 SW 5 7 30.16 1021 10 16 N/A
11:54 am 11:54 Partly Cloudy 92 33.3 73 22.8 54 54 SSW 7 11 30.16 1021 10 16 N/A
12:54 pm 12:54 Mostly Cloudy 92 33.3 71 21.7 51 51 S 6 9 30.15 1021 10 16 N/A
1:54 pm 13:54 Mostly Cloudy 94 34.4 72 22.2 49 49 VRB 7 11 30.15 1021 10 16 N/A
2:54 pm 14:54 Mostly Cloudy 94 34.4 72 22.2 49 49 S 12 19 30.13 1020 10 16 N/A
3:54 pm 15:54 Mostly Cloudy 95 35 69 20.6 43 43 SSE 12 19 30.12 1020 10 16 N/A
4:54 pm 16:54 Mostly Cloudy 94 34.4 70 21.1 46 46 S 7 11 30.11 1020 10 16 N/A
5:54 pm 17:54 Mostly Cloudy 94 34.4 70 21.1 46 46 S 12 19 30.09 1019 10 16 N/A
6:54 pm 18:54 Sunny 91 32.8 67 19.4 45 45 S 12 19 30.09 1019 10 16 N/A
7:54 pm 19:54 Mostly Cloudy 89 31.7 70 21.1 53 53 S 7 11 30.10 1019 10 16 N/A
8:54 pm 20:54 Mostly Cloudy 87 30.6 70 21.1 57 57 S 5 7 30.11 1020 10 16 N/A
9:54 pm 21:54 Mostly Cloudy 85 29.4 69 20.6 59 59 SSW 7 11 30.12 1020 10 16 N/A
10:54 pm 22:54 Partly Cloudy 84 28.9 69 20.6 61 61 S 5 7 30.12 1020 10 16 N/A
11:54 pm 23:54 Mostly Cloudy 83 28.3 70 21.1 65 65 VRB 5 7 30.13 1020 10 16 N/A

Powered by AerisWeather